GEFSSGP_con_probscp_096.txt.gz
Probability
0 0 0 0 0 0 0 0 0 0 0 0 0 0 0 0 0 1 2 4 10 25 36 40 43 43 40 40 43 46 47 47 44 35 24 15 7 1 0 0 0 0 0 0 0 0 0 0 0
0 0 0 0 0 0 0 0 0 0 0 0 0 0 0 0 0 1 4 7 15 29 40 44 48 49 49 49 53 56 56 55 50 41 30 20 10 3 1 0 0 0 0 0 0 0 0 0 0
0 0 0 0 0 0 0 0 0 0 0 0 0 0 0 1 1 4 10 16 23 33 42 50 55 55 54 55 61 64 64 63 59 50 38 26 15 7 3 1 0 0 0 0 0 0 0 0 0
0 0 0 0 0 0 0 0 0 0 0 0 0 0 0 1 2 8 17 24 28 32 39 50 57 57 54 54 60 65 66 66 64 56 44 31 20 11 5 1 0 0 0 0 0 0 0 0 0
0 0 0 0 0 0 0 0 0 0 0 0 0 0 0 2 3 10 19 24 25 28 34 46 56 56 53 53 57 62 65 65 65 60 48 35 24 16 8 3 0 0 0 0 0 0 0 0 0
0 0 0 0 0 0 0 0 0 0 0 0 0 0 1 3 5 10 16 19 19 23 31 44 52 52 51 52 56 60 64 63 60 58 51 41 32 23 15 7 2 0 0 0 0 0 0 0 0
0 0 0 0 0 0 0 0 0 0 0 0 0 0 1 6 11 15 17 17 17 20 29 38 43 43 44 47 51 57 60 56 51 49 49 47 40 29 20 12 5 2 1 1 0 0 0 0 0
0 0 0 0 0 0 0 0 0 0 0 0 0 2 5 12 20 25 26 25 24 25 29 33 34 34 35 37 43 48 51 48 42 40 41 40 34 26 19 14 9 5 2 1 2 1 0 0 0
0 0 0 0 0 0 0 0 0 0 0 1 2 6 11 18 27 34 40 43 42 39 37 36 35 34 32 33 37 40 40 38 32 30 29 25 20 17 14 13 12 8 4 3 3 2 1 0 0
0 0 0 0 0 0 0 0 0 0 0 2 6 11 16 22 28 36 45 56 58 53 49 45 44 43 40 40 41 38 36 34 27 22 20 18 17 16 13 13 13 11 7 4 3 3 2 1 0
0 0 0 0 0 0 0 0 0 0 1 5 9 14 20 26 28 31 39 53 60 60 56 52 52 52 48 47 46 43 43 42 32 25 25 25 24 21 18 16 15 13 10 6 4 4 3 1 0
0 0 0 0 0 0 0 0 0 1 3 7 11 15 21 27 29 29 34 46 57 61 59 55 54 55 53 51 52 52 54 53 46 40 37 34 31 28 24 20 18 15 12 10 7 5 4 1 0
0 0 0 0 0 0 0 0 0 1 4 9 14 18 22 26 29 31 35 46 56 61 60 55 53 57 59 59 60 60 60 58 56 51 44 37 35 33 30 28 24 19 15 13 10 8 6 3 1
0 0 0 0 0 0 0 0 0 2 5 11 16 20 23 26 28 30 36 46 56 60 60 57 56 61 64 66 68 65 59 57 56 53 45 38 36 36 37 37 34 27 20 16 13 12 11 7 4
0 0 0 0 0 0 0 0 1 3 8 13 16 19 23 27 30 31 36 47 55 58 61 61 60 63 67 69 69 63 55 50 50 50 45 40 38 39 42 44 42 36 29 25 22 21 19 14 10
0 0 0 0 0 0 0 1 3 6 10 13 15 19 25 30 34 34 38 47 53 57 62 63 61 64 69 70 66 59 51 45 45 46 44 41 39 39 44 47 45 42 39 35 32 30 28 22 17
0 0 0 0 0 0 0 2 4 7 9 10 12 16 24 31 34 36 40 46 53 57 60 60 59 63 68 68 64 56 49 44 43 43 43 41 37 37 42 46 45 45 47 45 39 36 32 24 19
0 0 0 0 0 0 1 3 5 7 8 8 9 12 18 25 30 33 37 43 50 55 56 54 55 59 63 63 60 54 47 41 37 36 36 35 34 34 38 41 41 45 50 50 44 36 28 19 14
0 0 0 0 0 0 1 3 4 7 8 7 7 8 11 18 25 28 29 35 42 49 51 50 50 52 56 59 56 48 40 32 28 26 26 28 29 31 32 34 36 41 45 43 37 29 20 13 9
0 0 0 0 0 0 0 1 2 4 5 5 4 5 8 14 21 23 24 27 33 41 46 46 46 46 47 49 48 41 31 25 21 19 19 22 25 25 24 25 29 33 33 29 25 20 13 7 5
0 0 0 0 0 0 0 0 0 1 1 2 2 3 6 12 18 22 24 26 30 36 40 41 42 42 39 39 39 33 25 20 17 15 16 16 17 17 15 16 19 21 21 18 15 12 8 4 2
0 0 0 0 0 0 0 0 0 0 0 1 3 4 5 9 15 19 23 25 29 32 35 38 41 40 35 33 32 28 21 17 14 12 11 10 10 10 11 11 12 12 11 10 7 5 3 1 1
0 0 0 0 0 0 0 1 1 1 0 1 4 5 6 8 12 17 19 21 24 27 30 35 39 38 33 30 28 23 17 13 11 9 7 6 6 6 7 7 8 7 6 5 3 1 1 0 0
0 0 0 0 0 0 0 1 2 1 0 2 4 5 5 7 10 13 14 16 19 22 25 29 32 31 28 25 22 18 13 10 8 7 6 4 2 2 2 3 4 3 3 3 2 0 0 0 0
0 0 0 0 0 0 0 1 1 1 0 2 4 4 4 5 7 9 11 12 14 16 18 20 21 20 18 16 15 13 10 8 7 6 5 2 0 0 0 0 1 2 2 2 1 0 0 0 0
0 0 0 0 0 0 0 0 1 0 0 2 3 3 2 2 4 6 7 8 9 10 10 12 12 12 10 9 9 8 7 6 6 5 3 1 0 0 0 0 0 1 2 1 0 0 0 0 0
0 0 0 0 0 0 0 0 1 0 0 2 3 2 2 2 3 4 5 5 5 6 6 7 7 7 7 6 5 4 5 5 4 3 1 0 0 0 0 0 0 0 0 0 0 0 0 0 0
0 0 0 0 0 0 0 0 0 0 0 1 2 1 2 2 2 3 3 4 4 5 5 5 5 4 4 4 3 3 3 3 2 1 0 0 0 0 0 0 0 0 0 0 0 0 0 0 0
0 0 0 0 0 0 0 0 0 1 1 1 1 1 2 1 0 1 2 3 3 4 4 4 3 3 3 4 3 2 1 1 1 0 0 0 0 0 0 0 0 0 0 0 0 0 0 0 0
0 0 0 0 0 0 0 0 1 2 2 1 1 1 1 0 0 0 1 1 2 3 3 3 3 3 3 3 3 1 0 0 0 0 0 0 0 0 0 0 0 0 0 0 0 0 0 0 0

GEFSSGP_con_probscp_102.txt.gz
Probability
0 0 0 0 0 0 0 0 0 0 0 0 0 0 0 0 1 2 2 16 46 69 73 75 72 55 34 20 14 10 4 3 3 3 3 3 2 1 1 1 1 0 0 0 0 0 0 0 0
0 0 0 0 0 0 0 0 0 0 0 0 0 0 0 0 1 3 7 23 53 71 72 74 74 62 44 31 24 17 9 5 5 6 7 6 5 3 2 2 2 1 0 0 0 0 0 0 0
0 0 0 0 0 0 0 0 0 0 0 0 0 0 1 1 3 7 14 33 60 73 71 72 75 68 56 47 39 27 16 11 11 12 14 12 9 6 4 3 2 1 0 0 0 0 0 0 0
0 0 0 0 0 0 0 0 0 0 0 0 0 1 2 4 8 14 21 38 61 69 66 70 73 70 64 59 52 39 27 23 22 23 23 20 14 10 7 5 4 1 0 0 0 0 0 0 0
0 0 0 0 0 0 0 0 0 0 0 0 1 3 6 9 14 19 23 34 52 60 63 67 70 71 69 66 60 52 46 43 40 38 36 32 24 16 10 7 5 3 1 0 0 0 0 0 0
0 0 0 0 0 0 0 0 0 0 0 0 2 6 12 16 18 19 20 27 40 54 63 64 65 68 69 70 68 66 65 63 59 55 50 42 32 21 12 8 6 4 2 0 0 0 0 0 0
0 0 0 0 0 0 0 0 0 0 0 0 1 7 19 27 24 18 17 22 34 52 61 58 57 61 64 69 71 71 70 69 68 63 54 42 30 20 14 10 7 5 3 1 0 0 0 0 0
0 0 0 0 0 0 0 0 0 0 0 0 2 10 24 33 27 20 19 23 36 53 57 51 50 54 56 60 65 66 65 64 64 59 49 35 22 16 13 11 8 6 3 1 0 0 0 0 0
0 0 0 0 0 0 0 0 0 0 0 1 5 15 26 29 24 20 23 29 41 54 53 46 45 46 42 47 57 58 55 55 54 48 40 30 20 14 11 12 13 9 4 2 1 1 1 0 0
0 0 0 0 0 0 0 0 0 0 0 2 8 17 26 28 23 22 28 39 51 56 52 47 46 41 34 44 58 55 47 45 42 38 35 29 23 17 15 20 23 16 8 4 2 2 2 0 0
0 0 0 0 0 0 0 0 0 0 1 4 10 19 28 31 28 29 37 49 61 63 58 54 52 44 40 54 64 57 49 46 40 36 36 31 26 24 25 31 31 22 13 8 7 4 1 0 0
0 0 0 0 0 0 0 0 0 1 4 8 14 23 30 32 32 37 47 58 67 69 64 61 59 52 53 64 68 62 58 54 47 44 41 32 27 29 32 33 29 21 14 12 11 5 1 0 0
0 0 0 0 0 0 0 0 1 4 8 13 18 25 30 32 34 43 55 64 68 68 63 63 63 61 62 69 71 67 65 61 56 53 43 31 28 31 32 29 22 16 14 14 13 11 8 7 7
0 0 0 0 0 0 0 0 2 6 11 16 20 23 28 34 39 48 59 66 67 65 64 64 65 66 70 74 74 72 70 66 62 55 42 30 29 32 33 29 22 19 21 23 23 24 26 24 22
0 0 0 0 0 0 0 1 4 8 13 17 19 23 30 38 43 49 59 64 65 67 69 69 67 68 73 77 77 74 71 66 61 53 41 32 31 36 36 33 29 28 33 39 40 41 42 41 37
0 0 0 0 0 0 0 3 6 10 15 19 22 27 34 39 43 49 56 61 64 68 73 73 70 69 72 76 75 70 66 62 55 47 41 36 35 38 38 37 35 35 40 45 46 47 49 48 45
0 0 0 0 0 0 0 3 7 12 17 22 25 29 34 38 43 51 58 61 65 67 70 72 71 69 70 71 69 64 61 56 49 42 39 39 39 37 36 36 37 38 41 44 44 47 50 46 42
0 0 0 0 0 0 1 4 8 12 16 20 23 28 32 35 42 51 58 60 63 65 66 66 68 67 65 64 62 59 54 48 42 36 34 37 39 36 34 34 36 39 43 44 43 44 44 37 30
0 0 0 0 0 0 1 5 10 13 13 15 20 26 30 32 38 46 50 52 56 61 62 62 62 61 59 58 58 54 47 39 33 28 27 30 34 34 33 35 38 41 44 42 39 36 32 25 20
0 0 0 0 0 0 1 4 11 14 14 17 21 24 26 29 33 38 41 45 51 55 57 57 56 53 53 54 53 49 40 31 24 21 21 22 24 27 31 35 38 41 42 39 34 29 23 16 15
0 0 0 0 0 0 0 3 10 17 20 22 24 24 24 24 25 29 33 39 44 47 49 50 50 49 49 50 48 43 35 26 19 17 16 16 16 20 25 30 33 35 36 34 29 23 17 14 14
0 0 0 0 0 0 0 2 9 18 23 24 24 23 21 19 19 20 24 30 34 37 40 44 46 47 46 46 45 41 32 24 19 16 13 12 12 14 18 22 26 27 25 22 18 14 12 12 12
0 0 0 0 0 0 0 2 7 16 23 25 24 21 19 18 17 17 20 23 26 29 33 38 42 44 44 43 42 36 28 21 19 15 12 9 8 9 11 15 18 18 15 12 9 8 9 9 8
0 0 0 0 0 0 0 1 6 15 24 29 27 24 22 20 18 19 20 21 21 23 26 31 36 39 40 39 35 28 20 16 14 13 10 8 7 6 7 9 10 11 9 7 7 7 7 7 6
0 0 0 0 0 0 0 1 8 18 27 31 32 29 24 21 19 18 19 19 18 19 21 24 29 32 32 30 26 20 14 11 10 9 8 7 6 5 5 6 6 7 6 6 6 6 5 4 3
0 0 0 0 0 0 0 2 9 18 24 28 30 27 22 19 17 17 17 16 16 17 17 19 23 25 23 20 17 13 10 8 7 7 6 5 3 2 2 3 4 5 4 3 3 3 3 1 1
0 0 0 0 0 0 0 3 7 11 15 18 19 17 15 13 13 13 12 12 12 14 15 16 16 16 14 11 9 7 6 5 5 5 5 3 1 0 0 1 1 2 1 1 0 1 1 0 0
0 0 0 0 0 0 0 2 4 6 7 9 11 11 10 8 7 7 7 7 7 9 11 11 9 7 6 5 5 4 3 3 4 3 2 1 0 0 0 0 0 0 0 0 0 0 0 0 0
0 0 0 0 0 0 0 2 5 7 7 8 11 12 9 6 4 3 2 2 2 3 4 5 4 3 3 3 3 3 3 3 2 2 1 0 0 0 0 0 0 0 0 0 0 0 0 0 0
0 0 0 0 0 0 0 2 8 10 9 10 13 14 9 5 3 1 0 0 0 0 1 1 2 3 3 3 3 3 3 2 1 1 0 0 0 0 0 0 0 0 0 0 0 0 0 0 0

GEFSSGP_con_probscp_108.txt.gz
Probability
0 0 0 0 0 0 0 0 0 0 0 0 0 1 2 3 4 4 4 7 11 13 12 16 23 26 26 25 20 14 11 10 10 11 12 13 13 14 11 7 5 4 2 1 0 0 0 0 0
0 0 0 0 0 0 0 0 0 0 0 0 1 3 6 7 7 7 8 15 22 23 23 26 30 33 32 30 26 20 16 13 10 9 10 10 10 11 8 5 4 3 1 0 0 0 0 0 0
0 0 0 0 0 0 0 0 0 0 0 0 1 5 9 10 8 9 15 27 34 35 36 38 42 43 40 37 32 25 20 15 11 9 7 5 5 5 3 2 2 2 1 0 0 0 0 0 0
0 0 0 0 0 0 0 0 0 0 0 1 2 6 8 9 10 17 31 43 45 42 42 46 48 48 46 42 37 29 23 17 14 11 7 4 3 3 1 0 1 1 0 0 0 0 0 0 0
0 0 0 0 0 0 0 0 0 0 0 2 5 10 12 15 24 38 50 57 56 51 48 49 51 50 49 48 44 37 30 25 21 17 13 8 5 3 1 0 0 0 0 0 0 0 0 0 0
0 0 0 0 0 0 0 0 0 0 1 3 8 17 22 29 43 55 59 61 63 61 57 53 51 50 50 50 50 47 42 36 30 25 19 12 6 2 1 0 0 0 0 0 0 0 0 0 0
0 0 0 0 0 0 0 0 0 0 2 4 12 23 32 40 52 61 64 63 63 63 62 59 55 53 52 51 52 53 49 42 35 28 21 14 7 3 1 0 0 0 0 0 0 0 0 0 0
0 0 0 0 0 0 0 0 0 1 3 8 16 28 37 45 56 67 72 70 66 63 62 61 61 59 55 51 51 53 51 45 37 28 22 17 11 7 3 1 1 0 0 0 0 1 1 1 1
0 0 0 0 0 0 0 0 1 2 6 13 24 35 44 53 64 72 76 75 70 64 60 60 63 63 59 54 51 51 49 44 37 29 26 22 17 12 7 3 1 0 0 0 0 1 2 2 2
0 0 0 0 0 0 0 1 2 5 10 18 31 44 52 59 66 72 74 72 68 63 58 56 58 60 60 56 53 51 46 41 35 30 28 25 19 14 9 5 2 1 0 1 1 0 1 1 1
0 0 0 0 0 0 1 2 4 7 12 19 32 46 55 58 63 68 69 66 62 59 54 51 51 53 55 55 54 51 47 40 32 28 25 22 15 10 8 6 5 4 3 3 2 1 0 0 0
0 0 0 0 0 0 1 4 7 9 11 19 31 45 53 57 60 61 61 59 56 54 51 47 47 47 48 48 49 48 45 38 31 25 22 17 11 7 5 4 7 8 6 5 4 2 1 0 0
0 0 0 0 0 1 3 6 9 10 12 21 34 45 53 57 57 55 54 52 49 48 46 44 42 41 41 42 41 42 39 33 26 22 20 15 10 6 3 3 6 7 6 6 5 3 1 1 1
0 0 0 0 0 1 4 8 9 10 14 25 36 44 51 54 54 53 51 47 44 41 40 37 36 36 36 35 34 33 32 26 21 19 18 14 9 5 3 3 4 4 4 5 5 4 2 1 0
0 0 0 0 0 1 4 7 8 9 16 26 34 41 45 47 48 49 47 44 42 40 37 34 32 33 33 30 27 27 27 23 19 17 14 11 8 5 5 6 6 4 3 4 5 5 4 2 0
0 0 0 0 0 1 3 6 6 9 18 27 33 38 40 39 40 43 41 40 41 41 38 33 29 28 31 30 27 26 26 23 17 13 10 8 8 8 8 8 7 5 3 3 4 5 5 3 1
0 0 0 0 0 0 2 5 7 11 19 27 33 35 35 34 34 36 37 37 39 40 36 30 24 24 29 33 30 27 24 20 14 9 6 6 7 9 8 7 5 4 4 3 3 4 4 3 1
0 0 0 0 0 0 3 7 9 13 19 26 30 31 31 31 30 32 36 37 37 36 32 27 24 24 27 30 28 24 21 18 13 9 5 4 5 7 8 7 5 4 4 4 3 3 3 2 1
0 0 0 0 0 1 5 8 10 13 17 24 28 28 29 29 29 32 36 37 37 35 31 27 26 25 25 26 25 23 20 17 14 10 7 4 4 5 6 6 4 3 3 4 4 3 3 1 0
0 0 0 0 0 1 4 7 10 14 19 26 29 30 29 28 28 30 31 32 32 32 31 29 28 28 27 27 26 23 20 16 12 10 7 5 4 4 3 3 2 1 2 3 4 3 2 1 0
0 0 0 0 0 0 1 4 9 17 24 30 32 30 27 25 25 24 23 22 22 25 27 28 28 30 30 30 28 23 19 14 10 8 6 4 3 2 1 0 0 0 1 2 2 1 1 0 0
0 0 0 0 0 0 0 2 7 16 26 32 32 28 23 19 18 17 16 15 15 17 20 22 23 25 27 28 26 21 16 12 8 7 6 4 2 1 0 0 0 1 1 2 1 0 0 0 0
0 0 0 0 0 0 0 0 3 10 19 27 28 24 18 14 13 14 14 12 11 12 15 17 18 19 20 21 19 16 12 9 7 6 6 4 1 0 0 0 0 1 2 2 1 0 0 0 0
0 0 0 0 0 0 0 0 1 4 10 19 23 18 12 10 10 11 12 11 10 11 14 15 16 15 14 13 12 10 8 6 6 6 5 3 1 0 0 0 0 1 1 1 1 0 0 0 0
0 0 0 0 0 0 0 0 0 1 6 14 17 12 7 6 7 9 10 10 10 10 12 13 13 12 9 7 7 6 5 4 4 4 3 2 1 0 0 0 0 0 0 0 0 0 0 0 0
0 0 0 0 0 0 0 0 0 3 7 12 11 7 5 4 5 6 7 7 7 8 9 10 9 6 4 3 3 3 3 1 1 1 1 1 1 0 0 0 0 0 0 0 0 0 0 0 0
0 0 0 0 0 0 0 0 1 5 9 9 7 5 4 3 3 4 4 4 4 5 6 6 4 2 1 1 1 1 1 0 0 0 0 0 0 0 0 0 0 0 0 0 0 0 0 0 0
0 0 0 0 0 0 0 0 2 6 8 7 4 3 3 2 2 2 2 1 1 2 3 3 1 0 0 0 0 0 0 0 0 0 0 0 0 0 0 0 0 0 0 0 0 0 0 0 0
0 0 0 0 0 0 0 0 2 4 6 5 3 1 1 1 1 1 1 0 0 0 1 1 0 0 0 0 0 0 0 0 0 0 0 0 0 0 0 0 0 0 0 0 0 0 0 0 0
0 0 0 0 0 0 0 1 2 4 5 4 2 0 0 0 0 0 0 0 0 0 0 0 0 0 0 0 0 0 0 0 0 0 0 0 0 0 0 0 0 0 0 0 0 0 0 0 0

GEFSSGP_con_probscp_114.txt.gz
Probability
0 0 0 0 0 0 0 0 0 0 0 0 0 1 0 0 0 0 0 2 6 10 13 16 17 18 20 22 26 32 37 39 37 32 28 26 23 19 14 7 2 1 0 0 0 0 0 0 0
0 0 0 0 0 0 0 0 0 0 0 0 0 1 0 0 0 0 0 3 8 14 17 20 24 25 25 27 31 32 33 36 36 31 27 25 22 19 14 8 2 0 0 0 0 0 0 0 0
0 0 0 0 0 0 0 0 0 0 0 0 0 0 0 0 0 0 2 7 15 21 23 28 33 35 34 35 36 33 32 33 33 30 26 23 20 18 14 7 2 0 0 0 0 0 0 0 0
0 0 0 0 0 0 0 0 0 0 0 0 0 0 0 0 0 2 6 14 23 27 29 35 41 43 43 42 41 37 34 32 32 29 25 21 19 18 15 8 2 0 0 0 0 0 0 0 0
0 0 0 0 0 0 0 0 0 0 0 0 1 1 2 2 3 6 12 19 29 33 35 40 47 48 48 46 44 41 37 34 33 31 26 21 20 21 18 11 4 0 0 0 1 1 1 1 0
0 0 0 0 0 0 0 0 1 1 2 3 4 5 6 8 11 16 22 26 33 40 41 44 48 50 49 48 45 43 40 37 37 34 28 22 22 22 19 12 6 1 0 0 1 2 2 1 1
0 0 0 0 0 0 0 1 3 4 5 6 7 8 10 16 23 31 34 34 37 44 46 46 46 46 48 48 47 46 44 40 38 34 27 22 21 19 16 12 7 3 1 0 1 1 1 1 0
0 0 0 0 0 0 0 1 3 5 5 6 7 9 15 27 39 45 45 42 41 44 48 48 45 43 45 47 47 48 47 43 38 33 26 22 21 18 14 11 7 3 1 0 0 0 0 0 0
0 0 0 0 0 0 0 1 1 3 4 7 12 19 30 45 53 53 52 50 46 44 46 48 47 47 48 50 50 50 49 47 42 35 29 25 23 19 15 12 8 4 2 1 1 1 0 0 1
0 0 0 0 0 0 1 1 1 1 3 10 23 36 49 58 59 56 55 55 53 47 44 45 49 53 56 57 55 53 54 53 48 41 34 29 25 22 19 15 12 8 6 5 5 4 2 1 2
0 0 0 0 0 0 1 2 2 2 3 9 25 44 56 60 59 55 55 56 55 50 45 45 49 53 54 55 55 57 59 57 51 44 37 30 25 22 20 18 15 13 10 9 9 8 5 3 3
0 0 0 0 0 1 2 3 4 5 6 9 23 44 57 59 56 53 54 55 54 51 48 46 47 47 46 47 51 56 58 56 50 44 37 29 24 20 18 16 14 12 11 11 10 8 6 4 3
0 0 0 0 1 2 4 4 5 9 13 17 28 44 53 53 49 47 49 52 52 50 46 43 42 42 43 44 47 51 54 53 49 43 37 29 23 20 18 15 11 9 9 11 10 8 6 4 3
0 0 0 1 2 3 4 4 4 9 18 25 33 41 45 42 36 34 37 44 47 45 41 39 36 36 38 39 40 43 46 46 45 42 36 30 24 22 21 17 11 8 8 10 10 8 5 4 3
0 0 0 1 2 3 3 3 4 9 19 27 32 36 36 32 27 24 26 32 36 37 36 34 32 29 29 30 30 31 31 32 34 34 31 28 25 23 21 17 12 9 7 9 10 7 4 3 3
0 0 0 0 1 3 3 3 5 11 21 25 28 31 30 27 25 23 22 23 27 30 30 29 26 23 22 22 21 19 19 20 24 24 24 25 23 20 17 13 10 8 8 9 9 8 5 3 2
0 0 0 0 1 2 3 4 7 13 20 23 24 25 24 23 23 22 21 20 23 25 24 23 21 18 16 16 15 12 12 15 17 18 18 20 19 16 12 8 6 6 7 8 8 8 6 4 3
0 0 0 0 1 2 4 5 7 11 16 19 19 18 18 17 18 18 18 19 21 22 20 20 19 16 13 12 11 10 10 12 13 14 13 13 12 11 8 5 5 5 5 7 8 7 5 4 3
0 0 0 0 1 2 3 4 6 8 12 15 14 13 12 12 12 12 14 16 17 17 17 17 16 14 11 10 10 10 10 9 8 8 7 6 6 6 4 3 3 4 4 6 7 7 5 4 3
0 0 0 0 0 1 2 2 3 6 9 10 11 10 10 9 8 8 8 9 10 12 13 13 13 12 11 10 11 10 9 6 4 3 4 4 4 4 3 2 3 4 4 4 4 5 4 3 3
0 0 0 0 0 0 0 0 2 4 6 7 8 9 9 8 8 6 4 4 5 7 8 9 10 12 13 12 11 10 9 7 3 3 5 6 6 5 4 2 1 1 1 1 1 3 3 3 3
0 0 0 0 0 0 0 0 0 2 5 7 7 8 8 7 7 6 4 4 4 5 6 7 8 10 11 11 10 9 9 8 5 4 5 6 6 5 3 1 0 0 0 0 0 1 2 3 3
0 0 0 0 0 0 0 0 0 1 3 6 5 5 4 5 6 5 4 4 3 4 5 6 7 8 8 8 7 8 7 6 4 4 4 4 3 3 1 0 0 0 0 0 0 0 1 1 2
0 0 0 0 0 0 0 0 0 0 2 4 3 1 2 2 3 3 4 3 3 4 5 5 6 6 6 6 6 6 4 3 3 3 3 2 1 1 0 0 0 0 0 0 0 0 0 1 2
0 0 0 0 0 0 0 0 0 0 1 3 2 1 2 2 2 2 3 3 2 3 3 3 3 3 4 4 4 3 2 1 2 2 2 1 0 0 0 0 0 0 0 0 0 0 0 0 1
0 0 0 0 0 0 0 0 0 0 0 1 2 2 2 3 3 2 2 1 1 1 1 1 1 1 1 1 1 1 0 0 1 1 1 0 0 0 0 0 0 0 0 0 0 0 0 0 0
0 0 0 0 0 0 0 0 0 0 0 0 1 1 1 2 2 2 1 0 0 0 0 0 0 0 0 0 0 0 0 0 0 0 0 0 0 0 0 0 0 0 0 0 0 0 0 0 0
0 0 0 0 0 0 0 0 0 0 0 0 0 0 0 1 1 1 0 0 0 0 0 0 0 0 0 0 0 0 0 0 0 0 0 0 0 0 0 0 0 0 0 0 0 0 0 0 0
0 0 0 0 0 0 0 0 0 0 0 0 0 0 0 0 0 0 0 0 0 0 0 0 0 0 0 0 0 0 0 0 0 0 0 0 0 0 0 0 0 0 0 0 0 0 0 0 0
0 0 0 0 0 0 0 0 0 0 0 0 0 0 0 0 0 0 0 0 0 0 0 0 0 0 0 0 0 0 0 0 0 0 0 0 0 0 0 0 0 0 0 0 0 0 0 0 0

GEFSSGP_con_probscp_120.txt.gz
Probability
0 0 0 0 0 0 0 0 0 0 0 0 0 0 0 0 0 0 0 0 1 2 2 2 3 4 5 9 16 22 25 25 24 21 19 17 14 10 6 4 3 2 1 0 0 0 0 0 0
0 0 0 0 0 0 0 0 0 0 0 0 0 0 0 0 0 0 0 0 1 1 1 2 3 5 7 13 21 27 30 30 28 26 23 20 17 14 10 7 5 3 1 0 0 0 0 0 0
0 0 0 0 0 0 0 0 0 0 0 0 0 0 0 0 0 0 0 0 0 0 1 3 4 7 13 22 30 34 37 38 36 34 29 24 22 19 16 11 7 4 1 0 0 0 0 0 0
0 0 0 0 0 0 0 0 0 0 0 0 0 1 2 2 2 2 2 2 1 0 1 3 6 11 20 29 36 39 40 43 45 43 37 30 27 24 20 16 11 5 2 0 0 0 0 0 0
0 0 0 0 0 0 0 0 0 0 0 0 0 1 3 6 5 4 5 4 3 3 4 5 6 12 21 30 36 40 42 45 48 48 43 38 33 28 23 19 15 9 4 1 1 1 1 1 1
0 0 0 0 0 0 0 0 0 0 1 1 1 2 6 9 8 5 5 5 5 7 8 8 7 9 16 25 33 39 42 44 46 46 45 42 36 29 23 19 16 13 8 4 1 1 2 2 1
0 0 0 0 0 0 0 1 1 2 3 4 4 6 11 15 12 6 5 6 7 8 10 10 8 8 11 18 27 34 37 38 40 41 39 36 31 24 18 16 14 13 9 5 2 1 1 1 1
0 0 0 0 0 0 0 2 4 6 8 11 13 14 20 24 18 11 10 10 9 9 10 10 9 7 7 11 18 25 30 33 35 33 30 25 19 13 11 11 13 12 8 4 3 3 2 2 2
0 0 0 0 0 0 0 2 5 8 13 19 25 27 29 30 25 20 20 18 16 13 11 10 10 6 4 8 14 18 23 27 27 24 22 17 10 7 9 14 16 12 7 4 4 4 2 2 2
0 0 0 0 0 0 0 2 4 8 14 24 33 36 34 31 27 26 28 28 26 21 16 15 15 10 8 15 23 22 22 25 22 19 20 19 15 11 14 22 21 12 7 6 5 4 2 1 2
0 0 0 0 0 0 1 2 3 7 14 21 28 32 32 28 26 28 32 35 34 29 23 23 24 19 18 26 33 32 33 35 30 28 31 33 31 23 23 29 27 17 12 11 10 7 4 3 2
0 0 0 0 0 0 1 2 4 9 15 17 20 25 28 29 28 30 33 36 36 34 29 28 31 32 33 38 42 42 44 45 44 44 45 45 42 34 34 38 36 28 23 22 20 14 10 6 3
0 0 0 0 0 0 1 2 5 10 15 17 19 23 27 30 32 32 32 32 34 35 32 32 36 42 47 48 48 46 48 49 51 53 51 47 44 41 44 49 48 40 34 33 29 22 17 12 7
0 0 0 0 0 0 0 2 5 9 13 18 23 27 28 30 33 34 31 29 31 33 34 35 39 46 50 49 47 45 46 48 50 51 49 44 41 43 46 50 51 47 43 40 34 27 23 19 13
0 0 0 0 0 0 0 2 5 8 11 17 24 29 29 28 31 34 32 28 26 27 30 31 35 41 44 44 43 41 42 43 43 42 40 38 38 41 44 42 44 48 49 47 41 35 31 24 18
0 0 0 0 0 0 0 2 5 7 10 14 21 26 28 26 26 29 28 25 22 22 23 24 27 35 39 41 42 41 39 38 37 35 32 31 33 38 41 39 40 45 49 50 47 44 38 29 21
0 0 0 0 0 0 0 3 5 7 8 12 17 22 24 23 20 19 19 19 20 20 20 20 24 31 36 38 40 40 39 37 36 34 30 27 27 31 36 38 40 43 46 47 46 46 42 32 25
0 0 0 0 0 0 1 4 7 7 7 11 16 20 21 19 15 13 13 14 16 18 18 19 21 26 31 33 34 34 33 34 35 34 30 26 24 25 28 33 38 40 41 42 43 43 41 34 28
0 0 0 0 0 0 2 6 9 9 8 11 15 17 19 18 15 12 11 11 12 13 15 17 18 21 24 28 30 30 29 30 30 30 28 25 24 23 24 28 33 35 35 37 40 41 38 33 29
0 0 0 0 0 1 3 6 9 8 8 11 12 13 16 17 16 14 12 11 9 9 11 13 14 16 19 23 27 28 27 25 24 25 25 24 24 25 25 26 28 27 28 31 35 36 33 28 25
0 0 0 0 0 1 2 5 6 6 6 8 9 9 12 15 16 15 14 12 10 10 10 9 9 11 14 18 21 22 21 19 19 21 23 23 23 24 25 24 22 20 21 24 26 27 26 22 21
0 0 0 0 0 0 1 2 4 5 5 5 7 9 11 14 14 12 12 12 11 12 11 9 7 9 13 17 18 17 15 14 17 19 19 18 18 18 18 17 16 14 14 16 18 19 19 17 16
0 0 0 0 0 0 0 0 2 4 4 5 7 9 10 11 10 8 8 9 10 11 10 9 8 10 15 18 20 19 16 16 19 19 16 12 12 12 11 11 10 10 10 11 12 13 13 12 13
0 0 0 0 0 0 0 0 2 3 3 5 7 8 8 7 6 6 7 8 8 9 8 8 8 10 14 17 19 20 20 19 20 18 14 10 9 8 7 6 7 7 8 8 7 7 7 8 8
0 0 0 0 0 0 0 1 3 4 5 6 7 7 6 4 4 6 7 8 9 8 7 7 8 9 11 14 16 17 18 17 15 13 11 9 6 5 3 2 2 4 5 5 3 2 2 2 3
0 0 0 0 0 0 0 1 3 5 5 6 6 6 5 3 3 4 5 6 7 7 6 7 8 8 9 10 11 12 12 10 7 7 6 5 3 1 0 0 0 1 2 2 1 0 0 0 1
0 0 0 0 0 0 0 1 2 4 4 3 4 5 4 3 1 1 2 2 3 3 4 5 5 6 6 6 6 7 7 5 3 3 3 2 0 0 0 0 0 0 1 1 0 0 0 0 0
0 0 0 0 0 0 0 0 1 2 2 3 3 4 3 1 0 0 0 0 0 1 1 2 2 2 2 2 3 4 4 3 3 2 1 0 0 0 0 0 0 0 0 0 0 0 0 0 0
0 0 0 0 0 0 0 0 0 1 2 3 4 4 3 1 0 0 0 0 0 0 0 0 0 0 0 0 1 2 2 2 2 1 0 0 0 0 0 0 0 0 0 0 0 0 0 0 0
0 0 0 0 0 0 0 0 1 2 2 3 5 5 3 1 0 0 0 0 0 0 0 0 0 0 0 0 0 1 1 1 1 0 0 0 0 0 0 0 0 0 0 0 0 0 0 0 0

GEFSSGP_con_probscp_126.txt.gz
Probability
0 0 0 0 0 0 0 0 0 0 0 0 1 4 9 11 9 6 9 23 33 24 14 12 10 7 3 1 0 0 0 0 0 0 0 0 0 0 0 0 0 0 0 0 0 0 0 0 0
0 0 0 0 0 0 0 0 0 0 0 1 4 8 11 12 10 8 13 29 32 18 9 8 8 6 4 1 0 0 0 0 0 0 0 0 0 0 0 0 0 0 0 0 0 0 1 1 0
0 0 0 0 0 0 0 0 0 0 1 3 8 13 14 13 13 12 20 32 30 15 7 8 7 6 5 3 1 1 0 0 0 0 0 0 0 1 1 1 1 1 0 0 0 0 1 2 1
0 0 0 0 0 0 0 0 0 0 1 4 12 20 23 22 21 19 22 27 22 12 9 10 10 7 5 4 3 2 1 2 3 3 2 2 2 3 3 3 3 2 1 0 0 0 1 2 2
0 0 0 0 0 0 0 0 0 0 1 6 18 31 36 34 29 23 21 19 14 11 10 12 13 9 5 5 5 3 3 5 8 9 8 8 8 8 7 6 4 3 1 0 0 1 2 2 3
0 0 0 0 0 0 0 0 1 1 3 9 22 37 43 39 30 21 17 15 15 16 13 12 12 10 7 8 8 6 5 7 12 15 14 15 16 14 10 8 5 3 2 1 1 2 3 3 3
0 0 0 0 0 0 0 0 1 3 7 12 23 37 42 36 26 18 14 15 20 22 16 10 9 8 7 8 10 10 10 12 16 18 18 19 19 15 11 9 7 5 4 3 2 2 3 3 3
0 0 0 0 0 0 0 1 3 7 12 16 25 36 39 32 22 17 17 18 22 23 15 9 8 7 5 6 10 14 16 18 19 18 17 17 15 12 8 8 8 8 6 5 3 2 2 2 2
0 0 0 0 0 0 1 3 5 10 17 23 29 34 35 29 23 21 23 24 27 25 16 10 9 8 6 8 14 18 19 20 18 15 14 14 12 9 8 10 14 12 9 6 3 1 1 2 2
0 0 0 0 0 0 1 4 6 11 20 26 28 31 32 30 28 28 29 32 36 32 21 15 14 13 14 19 24 23 21 21 17 15 16 16 14 13 15 23 28 21 12 7 4 3 2 2 3
0 0 0 0 0 1 3 5 8 12 17 20 23 26 28 28 29 31 32 37 41 34 24 22 23 22 25 32 33 29 28 28 24 23 26 22 19 20 28 39 39 28 17 11 9 6 3 2 3
0 0 0 0 1 2 5 8 12 13 12 12 16 22 25 25 26 30 34 38 38 31 25 27 31 33 40 44 41 35 35 37 35 37 35 29 27 28 35 43 40 28 19 17 15 10 4 2 2
0 0 0 1 3 4 6 9 12 12 9 10 15 22 25 24 26 31 35 37 36 33 30 33 37 43 50 53 48 40 39 41 43 44 41 36 36 36 38 43 39 28 23 22 19 13 8 5 2
0 0 0 2 3 4 5 6 8 9 9 12 18 23 25 26 29 33 38 41 40 37 36 38 41 47 53 55 50 45 44 44 44 46 44 40 41 41 42 45 43 35 29 27 23 18 17 14 10
0 0 0 1 2 3 3 4 6 10 12 15 20 24 26 28 31 37 43 46 43 38 37 38 42 47 52 55 54 52 50 47 46 46 43 39 39 42 45 46 45 40 34 31 27 26 26 25 21
0 0 0 1 1 1 1 3 7 10 13 17 21 26 30 31 34 38 42 43 41 38 38 39 43 48 54 58 58 55 52 50 48 46 42 39 39 42 44 43 42 40 38 33 30 30 32 31 27
0 0 0 0 0 0 1 4 6 9 13 16 21 28 31 34 36 36 36 37 37 38 40 42 44 47 52 57 57 53 50 49 48 47 45 44 44 44 44 42 40 40 39 34 28 29 31 29 27
0 0 0 0 0 0 1 4 6 8 13 17 22 25 29 34 35 33 31 32 35 37 39 41 42 43 47 50 51 48 47 46 47 47 46 47 47 46 45 43 42 41 39 33 27 26 26 25 24
0 0 0 0 0 0 2 5 8 9 12 17 22 24 27 31 31 28 27 29 32 34 36 38 39 41 43 45 44 42 42 42 43 42 42 44 45 44 42 41 41 40 37 32 25 23 22 22 21
0 0 0 0 0 1 2 4 7 8 11 16 22 25 29 30 29 24 22 24 25 27 29 33 37 39 40 40 38 36 36 37 37 37 38 39 38 37 35 35 35 36 35 31 25 22 21 20 19
0 0 0 0 0 2 2 3 6 10 13 17 22 27 30 31 29 24 21 19 18 19 20 24 31 34 35 35 34 33 34 34 34 34 34 32 29 29 29 29 30 31 31 30 27 24 22 18 15
0 0 0 0 0 1 1 4 10 17 20 20 25 30 30 30 29 25 21 18 15 14 14 17 22 25 28 30 30 31 32 32 31 29 28 25 23 23 24 25 26 27 27 26 26 24 21 15 11
0 0 0 0 0 0 0 4 14 23 25 24 28 34 34 33 30 25 20 16 14 13 13 13 15 18 21 23 24 26 27 27 26 25 24 22 20 19 19 21 22 22 21 21 21 20 17 12 9
0 0 0 0 0 0 0 3 12 22 26 27 32 37 38 35 30 24 18 16 14 14 12 11 12 15 16 17 19 19 20 21 20 20 20 19 18 16 15 16 16 15 14 14 15 14 12 9 7
0 0 0 0 0 0 0 2 10 20 27 32 37 40 38 31 25 20 16 14 13 13 12 12 13 14 15 16 16 16 16 16 15 14 14 14 13 11 10 10 10 8 8 9 10 10 8 6 5
0 0 0 0 0 0 0 3 11 21 30 37 40 38 33 24 17 14 11 10 9 10 10 12 14 15 14 13 13 14 14 13 12 10 8 8 6 5 5 5 5 5 4 5 6 6 4 3 3
0 0 0 0 0 0 0 3 9 19 28 34 33 30 25 18 12 9 7 6 6 6 8 11 14 13 11 10 10 10 11 10 9 6 5 4 3 3 3 3 3 3 2 2 2 2 2 2 1
0 0 0 0 0 0 0 2 7 16 24 28 24 21 18 14 10 7 4 2 3 3 5 7 9 9 7 6 6 6 6 6 5 4 3 3 3 3 3 3 2 1 1 1 0 0 0 0 0
0 0 0 0 0 0 0 2 6 13 22 26 23 20 17 13 10 7 3 1 1 1 2 3 4 4 4 3 3 3 2 2 2 3 3 3 3 3 2 2 1 0 0 0 0 0 0 0 0
0 0 0 0 0 0 0 2 5 11 19 25 25 22 18 13 9 6 3 1 0 0 1 2 3 3 2 1 1 1 0 0 1 2 3 3 3 2 1 1 0 0 0 0 0 0 0 0 0

GEFSSGP_con_probscp_132.txt.gz
Probability
0 0 0 0 0 0 0 0 0 1 2 6 12 18 22 20 11 4 2 5 12 14 12 11 12 9 7 6 4 3 4 4 2 1 0 0 1 2 3 3 2 1 0 0 0 0 0 0 0
0 0 0 0 0 0 0 0 1 1 3 8 18 26 29 26 19 10 5 10 20 23 16 14 16 14 9 6 4 2 2 3 3 2 1 0 0 1 2 2 2 1 0 0 0 0 0 0 0
0 0 0 0 0 0 0 0 1 3 5 13 27 36 33 26 21 14 11 20 32 33 25 21 23 21 15 9 5 2 0 1 2 2 1 0 0 1 1 1 1 0 0 0 0 0 0 0 0
0 0 0 0 0 0 0 0 1 4 9 20 36 44 35 25 21 18 20 31 42 41 32 26 28 28 21 13 7 4 1 0 1 1 1 0 0 1 0 0 0 0 1 1 2 1 0 0 0
0 0 0 0 0 0 0 0 2 6 14 28 42 47 40 31 27 26 28 37 47 46 36 31 31 30 25 18 11 7 4 1 0 0 0 0 1 1 1 1 1 2 3 3 3 2 1 0 0
0 0 0 0 0 0 0 2 5 11 19 32 42 46 41 35 31 29 30 40 49 47 39 32 29 27 25 22 18 11 6 4 2 1 1 1 2 2 2 3 4 6 6 5 3 3 1 1 1
0 0 0 0 0 0 1 3 8 15 23 32 41 45 42 37 32 29 32 41 47 45 39 32 27 23 22 21 18 13 9 7 5 3 2 3 3 4 4 5 7 9 9 6 4 3 3 3 2
0 0 0 0 0 0 1 4 9 14 22 29 35 40 42 42 38 35 37 40 39 38 36 31 26 22 19 17 15 13 12 10 8 5 4 3 3 4 4 5 7 8 7 4 3 4 5 4 4
0 0 0 0 0 0 2 5 9 13 19 25 31 35 40 44 45 43 40 37 30 27 28 27 24 21 18 16 14 14 14 12 9 7 5 3 2 2 4 5 5 6 5 2 2 4 6 5 4
0 0 0 0 0 1 3 6 8 12 16 23 30 36 39 41 43 42 39 32 24 18 18 19 19 17 17 17 17 16 14 12 9 8 6 4 3 2 2 4 4 4 3 1 1 3 4 4 4
0 0 0 0 1 2 4 5 7 9 13 19 29 37 37 37 35 34 32 27 20 14 11 12 13 13 14 16 17 15 12 9 7 6 6 4 3 2 2 3 4 4 4 3 3 3 3 3 4
0 0 1 1 2 4 4 3 5 8 11 18 28 35 36 33 30 27 25 20 15 10 8 8 9 9 9 11 12 11 8 7 6 5 4 3 3 3 3 2 4 7 8 7 5 4 4 4 4
0 1 2 2 3 4 4 3 5 8 14 23 30 31 30 28 25 22 18 13 9 7 7 8 8 8 7 8 8 6 5 5 5 4 3 4 3 4 4 3 4 7 9 8 6 4 4 5 5
1 1 2 3 3 4 4 5 7 10 18 28 31 27 23 21 19 18 15 10 6 6 7 9 9 8 8 7 6 5 6 6 5 3 3 5 5 4 4 3 3 4 4 4 4 3 3 4 4
0 0 1 2 3 3 4 6 9 14 22 30 30 25 22 20 17 17 16 12 8 7 7 7 7 8 9 8 7 8 9 8 6 4 4 5 6 6 5 4 2 2 1 2 2 3 3 2 2
0 0 1 2 2 2 3 6 10 17 25 30 30 28 26 23 19 18 18 16 12 9 7 6 6 8 9 10 11 13 13 11 8 7 6 6 7 8 9 8 4 2 2 3 3 4 3 2 1
0 0 0 1 1 2 3 5 10 17 26 32 32 31 29 23 19 18 18 17 15 11 8 7 7 8 11 12 14 15 14 11 9 7 6 6 6 8 11 11 8 6 5 6 6 4 3 3 3
0 0 0 0 1 3 5 7 10 15 24 31 33 33 29 22 18 18 18 17 15 12 9 8 7 8 11 14 15 14 12 8 6 6 5 4 4 7 10 11 10 9 8 8 7 4 3 3 3
0 0 0 0 1 3 6 9 11 14 20 27 32 32 28 20 15 16 16 15 12 10 8 6 5 6 9 13 15 14 10 8 7 6 5 4 4 6 8 9 10 9 9 8 6 4 3 3 3
0 0 0 0 1 2 4 8 12 16 20 26 32 32 26 18 14 14 13 10 9 7 5 4 3 4 6 9 11 12 10 10 10 8 6 5 6 7 8 7 7 8 7 5 3 3 3 2 2
0 0 0 0 0 1 2 5 11 18 25 30 32 29 24 18 15 13 10 8 6 5 4 3 3 3 3 5 8 8 7 8 10 9 7 7 8 8 7 6 6 6 6 4 3 2 1 1 1
0 0 0 0 0 0 1 3 8 17 25 29 28 24 19 15 14 12 10 9 7 5 4 4 3 3 3 4 5 5 5 6 8 8 6 6 7 7 7 6 6 6 6 5 3 2 1 0 0
0 0 0 0 0 0 0 1 4 11 21 25 25 21 16 11 11 10 10 10 9 7 5 4 4 4 4 3 3 4 4 6 8 6 5 5 5 6 6 6 6 6 6 5 3 1 0 0 0
0 0 0 0 0 0 0 0 2 7 18 24 23 20 15 11 10 9 9 10 10 8 6 4 4 4 4 3 3 3 3 5 6 5 5 5 5 5 6 6 5 4 4 4 3 2 1 0 0
0 0 0 0 0 0 0 1 2 6 15 21 20 18 16 13 10 8 8 8 7 6 5 4 4 3 3 3 3 3 3 3 3 4 4 4 4 4 4 4 4 3 3 3 3 2 1 0 0
0 0 0 0 0 0 0 1 1 4 10 15 16 15 15 12 8 6 5 4 3 3 3 3 3 3 2 2 2 2 2 1 1 2 2 2 2 3 3 3 3 3 3 3 3 2 1 0 0
0 0 0 0 0 0 0 0 0 2 6 10 11 11 10 7 4 2 1 1 1 1 1 2 2 1 1 1 1 1 1 0 0 1 1 0 1 3 3 3 3 3 3 2 2 1 0 0 0
0 0 0 0 0 0 0 0 1 2 4 7 8 7 6 4 1 0 0 0 0 0 0 0 0 0 0 0 0 0 0 0 0 0 0 0 1 2 3 3 3 3 1 1 1 0 0 0 0
0 0 0 0 0 0 0 0 1 2 3 4 6 6 6 4 1 0 0 0 0 0 0 0 0 0 0 0 0 0 0 0 0 0 0 0 1 2 3 3 3 2 1 0 0 0 0 0 0
0 0 0 0 0 0 0 0 1 2 2 2 5 6 6 5 2 0 0 0 0 0 0 0 0 0 0 0 0 0 0 0 0 0 0 0 0 1 3 3 3 1 0 0 0 0 0 0 0

GEFSSGP_con_probscp_138.txt.gz
Probability
0 0 0 0 0 0 0 0 0 0 0 0 1 2 3 1 1 2 2 2 4 5 3 1 2 4 7 10 11 10 7 4 3 2 1 1 2 2 2 2 1 0 0 0 0 0 0 0 0
0 0 0 0 0 0 0 0 0 0 0 1 2 4 4 3 3 3 3 5 9 10 7 5 6 8 11 13 12 10 7 4 2 1 1 1 2 1 1 1 0 0 0 0 0 0 0 0 0
0 0 0 0 0 0 0 0 0 1 1 1 4 7 7 6 5 5 6 11 18 19 15 13 14 15 16 16 15 12 8 5 3 2 3 4 4 3 2 2 1 0 1 1 0 0 0 0 0
0 0 0 0 0 0 0 0 0 1 2 3 6 10 10 9 7 9 14 22 29 29 24 23 23 24 23 22 19 14 10 7 6 6 5 6 6 6 5 5 3 2 2 2 2 1 2 2 2
0 0 0 0 0 0 0 0 1 1 3 5 9 15 16 13 13 17 24 32 39 38 34 33 34 32 30 29 24 18 13 11 12 10 8 7 7 7 8 8 7 5 5 4 4 4 4 4 4
0 0 0 0 0 0 0 1 2 4 6 10 15 19 20 20 23 27 32 38 43 45 42 40 40 38 36 34 31 25 19 16 16 15 12 8 7 7 8 8 10 9 7 6 5 4 4 4 5
0 0 0 0 0 0 0 2 4 7 11 16 21 23 22 26 34 37 37 41 44 45 44 42 41 40 39 37 36 32 25 19 18 17 14 10 8 6 6 8 11 10 8 6 5 4 4 4 5
0 0 0 0 0 0 0 2 5 9 13 18 22 22 24 33 42 44 43 42 42 41 40 38 38 39 39 38 37 34 28 22 19 17 15 12 9 7 6 7 9 9 8 7 6 6 6 6 6
0 0 0 0 0 0 0 1 4 9 15 20 20 22 30 41 45 45 43 40 38 36 34 32 31 34 36 34 32 29 26 22 17 14 12 10 8 6 5 5 6 7 7 8 8 8 8 6 5
0 0 0 0 0 0 1 2 4 11 18 21 22 27 36 42 43 40 39 37 34 31 28 25 24 27 29 27 25 22 18 15 12 9 7 6 5 4 3 4 5 4 5 6 7 7 6 4 2
0 0 0 0 0 0 1 2 4 9 15 18 24 33 38 38 38 37 35 32 28 24 22 20 18 19 20 19 18 17 15 12 9 6 4 4 4 3 2 3 3 2 2 4 6 5 3 1 0
0 0 0 0 0 0 1 1 2 5 9 14 22 31 34 32 31 30 27 23 20 18 16 15 13 12 12 12 12 13 13 12 11 7 4 3 3 1 1 1 1 1 2 3 5 4 2 0 0
0 0 0 0 1 1 2 2 1 3 8 14 21 27 28 26 23 19 16 12 12 12 11 9 9 9 9 9 8 8 9 10 10 7 4 1 1 0 0 0 0 1 2 3 4 5 3 1 1
0 0 0 0 1 3 4 3 2 5 10 16 19 21 21 18 14 10 7 5 7 9 6 5 6 6 8 9 8 6 5 6 7 6 3 0 0 0 0 0 0 0 1 1 3 4 4 2 2
0 0 0 0 1 2 4 4 5 9 15 17 17 17 16 12 8 6 4 2 4 6 5 3 3 4 6 8 8 7 5 4 4 3 1 0 0 0 0 0 0 0 0 0 1 1 1 2 2
0 0 0 0 0 0 2 4 7 13 20 20 16 14 11 7 4 4 3 2 3 4 4 4 2 2 3 6 7 6 5 4 3 2 1 0 0 0 0 0 0 0 0 0 0 0 0 1 2
0 0 0 0 0 0 2 5 9 16 22 21 16 12 10 7 5 4 3 3 4 4 4 3 2 1 1 2 4 5 4 3 3 3 1 0 0 0 0 0 0 0 0 0 1 1 1 0 1
0 0 0 0 0 1 3 7 12 16 18 18 14 11 9 9 8 6 5 4 4 3 3 3 2 0 0 1 2 3 3 3 3 2 1 0 0 0 0 0 0 0 0 0 1 1 1 0 1
0 0 0 0 0 1 3 7 11 13 13 14 13 9 9 11 10 8 7 4 2 1 1 2 1 0 1 1 2 2 1 1 2 1 1 0 0 0 0 0 0 0 0 0 1 1 0 1 2
0 0 0 0 0 0 2 4 6 8 9 11 12 9 8 10 10 9 7 4 2 0 0 0 0 0 1 2 1 1 0 0 0 0 0 0 0 0 0 0 0 0 0 0 0 0 0 1 2
0 0 0 0 0 0 1 1 2 4 5 8 10 10 8 9 9 9 7 5 3 1 0 0 0 0 1 1 1 1 0 0 0 1 1 1 0 0 0 1 1 1 1 1 0 0 0 0 1
0 0 0 0 0 0 0 0 0 1 3 6 8 9 8 8 8 9 7 5 4 2 1 1 1 0 1 1 1 1 1 0 1 2 2 1 1 1 1 2 2 2 2 1 0 0 0 0 0
0 0 0 0 0 0 0 0 0 0 2 6 8 9 9 8 8 8 7 5 4 3 3 2 2 2 2 2 2 2 1 1 2 3 3 3 2 2 2 1 1 2 3 2 0 0 0 0 0
0 0 0 0 0 0 0 0 0 0 2 7 10 12 11 9 9 8 6 5 5 4 4 3 3 3 2 3 2 1 1 2 3 3 3 3 2 1 1 0 1 2 3 2 1 0 0 0 0
0 0 0 0 0 0 0 1 1 0 2 6 9 11 11 9 9 8 6 4 4 4 4 3 2 2 1 1 1 1 1 2 3 3 3 3 1 0 0 0 1 2 3 3 2 1 1 0 0
0 0 0 0 0 0 0 1 2 1 2 5 7 9 9 8 8 6 4 2 2 3 3 1 1 1 0 0 0 1 1 2 2 2 2 2 1 0 0 0 1 2 3 3 3 3 2 1 1
0 0 0 0 0 0 0 1 2 1 1 4 6 8 8 7 6 4 2 0 1 2 2 1 0 0 0 0 0 0 1 1 1 1 1 1 0 0 0 0 0 1 2 3 3 3 3 3 2
0 0 0 0 0 0 0 1 1 1 1 3 5 7 8 6 4 3 1 0 0 1 1 0 0 0 1 0 0 0 0 0 0 0 0 0 0 0 0 0 0 0 1 3 3 3 3 3 3
0 0 0 0 0 0 0 0 0 0 1 2 3 5 6 6 3 1 0 0 0 0 0 0 0 0 0 0 0 0 0 0 0 0 0 0 0 0 0 0 0 0 1 2 3 3 3 3 3
0 0 0 0 0 0 0 0 0 0 0 1 3 4 5 5 3 1 0 0 0 0 0 0 0 0 0 0 0 0 0 0 0 0 0 0 0 0 0 0 0 0 1 2 3 3 3 3 2